• In Hungary
  • List of Countries
  • For 7 days
  • Water Temperature
  • Satellite Maps
  • Weather Map
  • News
  • Weather Widgets
  • user-avatar
    Login

    Hourly Weather Warendorf

    Today, 24 November, Friday

    Time Temperature Precipitation Wind Pressure Humidity
    00:00 +8°C° 0 mm 4 mps 751 mmHg 78%
    01:00 +8°C° 0 mm 3 mps 751 mmHg 77%
    02:00 +8°C° 0 mm 3 mps 751 mmHg 78%
    03:00 +8°C° 0 mm 3 mps 750 mmHg 79%
    04:00 +8°C° 0 mm 2 mps 750 mmHg 80%
    05:00 +8°C° 1 mm 2 mps 749 mmHg 83%
    06:00 +8°C° 1 mm 2 mps 749 mmHg 87%
    07:00 +8°C° 0 mm 2 mps 749 mmHg 90%
    08:00 +7°C° 0.9 mm 2 mps 749 mmHg 90%
    09:00 +7°C° 0.9 mm 2 mps 749 mmHg 90%
    10:00 +7°C° 0.9 mm 2 mps 750 mmHg 89%
    11:00 +7°C° 0.1 mm 2 mps 750 mmHg 87%
    12:00 +8°C° 0.1 mm 3 mps 751 mmHg 85%
    13:00 +8°C° 0.1 mm 3 mps 751 mmHg 83%
    14:00 +8°C° 0 mm 3 mps 751 mmHg 85%
    15:00 +8°C° 0 mm 3 mps 752 mmHg 86%
    16:00 +7°C° 0 mm 2 mps 752 mmHg 87%
    17:00 +7°C° 0 mm 2 mps 753 mmHg 89%
    18:00 +7°C° 0 mm 1 mps 753 mmHg 91%
    19:00 +7°C° 0 mm 1 mps 753 mmHg 92%
    20:00 +7°C° 0 mm 1 mps 753 mmHg 92%
    21:00 +7°C° 0 mm 1 mps 753 mmHg 92%
    22:00 +5°C° 0 mm 0 mps 753 mmHg 92%
    23:00 +7°C° 0.4 mm 1 mps 753 mmHg 92%

    Tomorrow, 25 November, Saturday

    Time Temperature Precipitation Wind Pressure Humidity
    00:00 +7°C° 0.4 mm 1 mps 753 mmHg 92%
    01:00 +7°C° 0.4 mm 1 mps 752 mmHg 91%
    02:00 +7°C° 0.8 mm 1 mps 752 mmHg 91%
    03:00 +6°C° 0.8 mm 1 mps 751 mmHg 91%
    04:00 +5°C° 0.8 mm 2 mps 751 mmHg 91%
    05:00 +5°C° 0.5 mm 2 mps 751 mmHg 90%
    06:00 +5°C° 0.5 mm 2 mps 750 mmHg 89%
    07:00 +4°C° 0.5 mm 3 mps 750 mmHg 87%
    08:00 +5°C° 0.1 mm 2 mps 750 mmHg 87%
    09:00 +5°C° 0.1 mm 2 mps 751 mmHg 87%
    10:00 +5°C° 0.1 mm 2 mps 751 mmHg 86%
    11:00 +5°C° 0 mm 3 mps 751 mmHg 81%
    12:00 +5°C° 0 mm 3 mps 752 mmHg 76%
    13:00 +7°C° 0 mm 3 mps 752 mmHg 71%
    14:00 +5°C° 0 mm 3 mps 752 mmHg 73%
    15:00 +5°C° 0 mm 3 mps 753 mmHg 74%
    16:00 +4°C° 0 mm 3 mps 753 mmHg 75%
    17:00 +4°C° 0 mm 3 mps 753 mmHg 77%
    18:00 +4°C° 0 mm 3 mps 754 mmHg 79%
    19:00 +3°C° 0 mm 3 mps 755 mmHg 81%
    20:00 +3°C° 0 mm 3 mps 755 mmHg 81%
    21:00 +3°C° 0 mm 3 mps 755 mmHg 82%
    22:00 +2°C° 0 mm 3 mps 756 mmHg 83%
    23:00 +2°C° 0 mm 3 mps 756 mmHg 83%

    Day after tomorrow, 26 November, Sunday

    Time Temperature Precipitation Wind Pressure Humidity
    00:00 +2°C° 0 mm 3 mps 756 mmHg 84%
    01:00 +2°C° 0 mm 3 mps 757 mmHg 84%
    02:00 0°C° 0 mm 4 mps 757 mmHg 83%
    03:00 0°C° 0 mm 4 mps 757 mmHg 83%
    04:00 0°C° 0 mm 4 mps 757 mmHg 83%
    05:00 0°C° 0 mm 5 mps 758 mmHg 83%
    06:00 0°C° 0 mm 5 mps 758 mmHg 83%
    07:00 0°C° 0 mm 5 mps 758 mmHg 83%
    08:00 +1°C° 0.1 mm 5 mps 758 mmHg 82%
    09:00 +1°C° 0.1 mm 5 mps 759 mmHg 81%
    10:00 +1°C° 0.1 mm 6 mps 759 mmHg 80%
    11:00 +2°C° 0 mm 6 mps 759 mmHg 78%
    12:00 +3°C° 0 mm 6 mps 759 mmHg 76%
    13:00 +3°C° 0 mm 6 mps 759 mmHg 74%
    14:00 +3°C° 0 mm 6 mps 759 mmHg 74%
    15:00 +3°C° 0 mm 6 mps 759 mmHg 75%
    16:00 +2°C° 0 mm 5 mps 760 mmHg 76%
    17:00 +2°C° 0.2 mm 5 mps 760 mmHg 77%
    18:00 +2°C° 0.2 mm 6 mps 760 mmHg 79%
    19:00 +2°C° 0.2 mm 6 mps 761 mmHg 80%
    20:00 +2°C° 0.4 mm 6 mps 761 mmHg 82%
    21:00 +2°C° 0.4 mm 5 mps 761 mmHg 84%
    22:00 +2°C° 0.4 mm 5 mps 762 mmHg 87%
    23:00 +2°C° 0.1 mm 5 mps 762 mmHg 85%

    27 November, Monday

    Time Temperature Precipitation Wind Pressure Humidity
    00:00 +2°C° 0.1 mm 5 mps 762 mmHg 84%
    01:00 +2°C° 0.1 mm 5 mps 762 mmHg 83%
    02:00 +1°C° 0.1 mm 5 mps 762 mmHg 83%
    03:00 +1°C° 0.1 mm 5 mps 762 mmHg 84%
    04:00 +1°C° 0.1 mm 5 mps 762 mmHg 84%
    05:00 +1°C° 0.1 mm 5 mps 762 mmHg 85%
    06:00 +1°C° 0.1 mm 5 mps 762 mmHg 86%
    07:00 +1°C° 0.1 mm 5 mps 762 mmHg 87%
    08:00 +2°C° 0.1 mm 5 mps 762 mmHg 86%
    09:00 +2°C° 0.1 mm 6 mps 762 mmHg 85%
    10:00 +2°C° 0.1 mm 6 mps 762 mmHg 83%
    11:00 +2°C° 0.3 mm 7 mps 761 mmHg 82%
    12:00 +3°C° 0.3 mm 7 mps 761 mmHg 80%
    13:00 +3°C° 0.3 mm 7 mps 760 mmHg 79%
    14:00 +3°C° 0 mm 7 mps 759 mmHg 79%
    15:00 +3°C° 0 mm 7 mps 759 mmHg 80%
    16:00 +4°C° 0 mm 7 mps 758 mmHg 80%
    17:00 +4°C° 0.3 mm 7 mps 758 mmHg 80%
    18:00 +4°C° 0.3 mm 8 mps 757 mmHg 81%
    19:00 +4°C° 0.3 mm 8 mps 756 mmHg 81%
    20:00 +4°C° 0.7 mm 8 mps 756 mmHg 82%
    21:00 +4°C° 0.7 mm 8 mps 756 mmHg 83%
    22:00 +4°C° 0.7 mm 8 mps 755 mmHg 84%
    23:00 +4°C° 1 mm 7 mps 755 mmHg 86%

    28 November, Tuesday

    Time Temperature Precipitation Wind Pressure Humidity
    00:00 +4°C° 1 mm 6 mps 754 mmHg 87%
    01:00 +4°C° 1 mm 6 mps 753 mmHg 89%
    02:00 +4°C° 0.9 mm 6 mps 753 mmHg 89%
    03:00 +4°C° 0.9 mm 6 mps 752 mmHg 89%
    04:00 +4°C° 0.9 mm 6 mps 751 mmHg 89%
    05:00 +4°C° 0.7 mm 6 mps 751 mmHg 88%
    06:00 +4°C° 0.7 mm 6 mps 750 mmHg 87%
    07:00 +4°C° 0.7 mm 6 mps 750 mmHg 86%
    08:00 +4°C° 0.6 mm 6 mps 749 mmHg 85%
    09:00 +3°C° 0.6 mm 6 mps 749 mmHg 84%
    10:00 +3°C° 0.6 mm 6 mps 748 mmHg 83%
    11:00 +3°C° 0.3 mm 6 mps 747 mmHg 83%
    12:00 +4°C° 0.3 mm 6 mps 747 mmHg 82%
    13:00 +4°C° 0.3 mm 6 mps 746 mmHg 81%
    14:00 +3°C° 0.2 mm 6 mps 746 mmHg 82%
    15:00 +3°C° 0.2 mm 5 mps 745 mmHg 82%
    16:00 +3°C° 0.2 mm 5 mps 744 mmHg 82%
    17:00 +3°C° 0.2 mm 5 mps 744 mmHg 82%
    18:00 +3°C° 0.2 mm 5 mps 744 mmHg 83%
    19:00 +3°C° 0.2 mm 5 mps 744 mmHg 83%
    20:00 +3°C° 0.3 mm 4 mps 743 mmHg 84%
    21:00 +3°C° 0.3 mm 4 mps 743 mmHg 84%
    22:00 +3°C° 0.3 mm 4 mps 743 mmHg 85%
    23:00 +3°C° 0.2 mm 4 mps 743 mmHg 86%

    29 November, Wednesday

    Time Temperature Precipitation Wind Pressure Humidity
    00:00 +3°C° 0.2 mm 3 mps 743 mmHg 88%
    01:00 +3°C° 0.2 mm 3 mps 743 mmHg 89%
    02:00 +3°C° 0.1 mm 3 mps 743 mmHg 90%
    03:00 +3°C° 0.1 mm 3 mps 743 mmHg 91%
    04:00 +3°C° 0.1 mm 3 mps 744 mmHg 91%
    05:00 +3°C° 0 mm 3 mps 744 mmHg 91%
    06:00 +2°C° 0 mm 3 mps 744 mmHg 91%
    07:00 +1°C° 0 mm 4 mps 744 mmHg 92%
    08:00 +1°C° 0.1 mm 4 mps 745 mmHg 90%
    09:00 +1°C° 0.1 mm 4 mps 745 mmHg 89%
    10:00 +1°C° 0.1 mm 4 mps 746 mmHg 87%
    11:00 +3°C° 0.2 mm 4 mps 746 mmHg 86%
    12:00 +3°C° 0.2 mm 4 mps 746 mmHg 85%
    13:00 +3°C° 0.2 mm 4 mps 746 mmHg 84%
    14:00 +3°C° 0.4 mm 3 mps 746 mmHg 85%
    15:00 +3°C° 0.4 mm 3 mps 747 mmHg 87%
    16:00 +3°C° 0.4 mm 3 mps 747 mmHg 88%
    17:00 +4°C° 0.5 mm 2 mps 747 mmHg 90%
    18:00 +4°C° 0.5 mm 2 mps 747 mmHg 91%
    19:00 +4°C° 0.5 mm 2 mps 748 mmHg 93%
    20:00 +3°C° 0.3 mm 2 mps 748 mmHg 93%
    21:00 +3°C° 0.3 mm 2 mps 748 mmHg 93%
    22:00 +3°C° 0.3 mm 2 mps 749 mmHg 94%
    23:00 +3°C° 0 mm 2 mps 749 mmHg 94%
    Show more